TimeEST,TemperatureF,Dew PointF,Humidity,Sea Level PressureIn,VisibilityMPH,Wind Direction,Wind SpeedMPH,Gust SpeedMPH,PrecipitationIn,Events,Conditions,WindDirDegrees,DateUTC
12:15 AM,45.7,33.8,63,30.02,10.0,West,11.5,-,N/A,,Clear,260,2013-01-17 05:15:00
12:35 AM,45.7,32.0,59,30.02,10.0,Calm,Calm,-,N/A,,Clear,0,2013-01-17 05:35:00
12:55 AM,46.0,31.8,58,30.02,10.0,Calm,Calm,-,N/A,,Clear,0,2013-01-17 05:55:00
1:15 AM,45.7,31.1,57,30.03,10.0,Calm,Calm,-,N/A,,Clear,0,2013-01-17 06:15:00
1:35 AM,46.0,26.4,46,30.04,10.0,Calm,Calm,-,N/A,,Clear,0,2013-01-17 06:35:00
1:55 AM,45.1,26.6,48,30.05,10.0,Calm,Calm,-,N/A,,Mostly Cloudy,0,2013-01-17 06:55:00
2:15 AM,45.1,23.7,43,30.03,10.0,Calm,Calm,-,N/A,,Scattered Clouds,0,2013-01-17 07:15:00
2:35 AM,45.1,21.9,40,30.04,10.0,Calm,Calm,-,N/A,,Clear,0,2013-01-17 07:35:00
2:55 AM,43.9,21.6,41,30.05,10.0,Calm,Calm,-,N/A,,Clear,0,2013-01-17 07:55:00
3:15 AM,44.2,17.2,34,30.04,10.0,NW,4.6,-,N/A,,Clear,310,2013-01-17 08:15:00
3:35 AM,43.7,20.3,39,30.04,10.0,WNW,4.6,-,N/A,,Clear,300,2013-01-17 08:35:00
4:35 AM,43.7,19.2,38,30.05,10.0,Calm,Calm,-,N/A,,Scattered Clouds,0,2013-01-17 09:35:00
4:55 AM,42.6,21.4,43,30.03,10.0,Calm,Calm,-,N/A,,Clear,0,2013-01-17 09:55:00
5:15 AM,41.5,24.8,51,30.05,10.0,Calm,Calm,-,N/A,,Clear,0,2013-01-17 10:15:00
5:35 AM,42.1,22.3,45,30.05,10.0,NW,6.9,-,N/A,,Clear,310,2013-01-17 10:35:00
5:55 AM,41.9,21.2,44,30.05,10.0,WNW,5.8,-,N/A,,Clear,290,2013-01-17 10:55:00
6:15 AM,41.7,18.5,39,30.05,10.0,NW,10.4,-,N/A,,Clear,310,2013-01-17 11:15:00
6:35 AM,40.3,19.4,43,30.05,10.0,Calm,Calm,-,N/A,,Clear,0,2013-01-17 11:35:00
6:55 AM,39.2,20.7,47,30.09,10.0,Calm,Calm,-,N/A,,Clear,0,2013-01-17 11:55:00
7:15 AM,39.9,20.1,45,30.09,10.0,North,4.6,-,N/A,,Clear,360,2013-01-17 12:15:00
7:35 AM,40.5,20.3,45,30.10,10.0,Calm,Calm,-,N/A,,Clear,0,2013-01-17 12:35:00
7:55 AM,39.7,23.2,52,30.11,10.0,Calm,Calm,-,N/A,,Clear,0,2013-01-17 12:55:00
8:15 AM,40.5,23.5,51,30.10,10.0,Calm,Calm,-,N/A,,Clear,0,2013-01-17 13:15:00
8:35 AM,40.1,27.1,60,30.13,10.0,Calm,Calm,-,N/A,,Clear,0,2013-01-17 13:35:00
8:55 AM,41.0,27.0,57,30.11,10.0,Calm,Calm,-,N/A,,Clear,0,2013-01-17 13:55:00
9:15 AM,41.0,25.9,55,30.12,10.0,Calm,Calm,-,N/A,,Clear,0,2013-01-17 14:15:00
9:35 AM,41.0,25.9,55,30.13,10.0,Calm,Calm,-,N/A,,Clear,0,2013-01-17 14:35:00
9:55 AM,41.0,27.7,59,30.11,10.0,Calm,Calm,-,N/A,,Clear,0,2013-01-17 14:55:00
10:15 AM,41.0,27.9,60,30.12,10.0,Calm,Calm,-,N/A,,Clear,0,2013-01-17 15:15:00
10:35 AM,40.6,27.0,58,30.13,10.0,Calm,Calm,-,N/A,,Clear,0,2013-01-17 15:35:00
10:55 AM,41.0,26.6,57,30.12,10.0,Calm,Calm,-,N/A,,Clear,0,2013-01-17 15:55:00
11:15 AM,40.8,25.7,55,30.11,10.0,Calm,Calm,-,N/A,,Clear,0,2013-01-17 16:15:00
11:35 AM,41.4,27.3,57,30.09,10.0,Calm,Calm,-,N/A,,Clear,0,2013-01-17 16:35:00
11:55 AM,41.4,27.5,58,30.10,10.0,Calm,Calm,-,N/A,,Clear,0,2013-01-17 16:55:00
12:15 PM,41.4,28.9,61,30.11,10.0,Calm,Calm,-,N/A,,Scattered Clouds,0,2013-01-17 17:15:00
12:35 PM,41.5,28.2,59,30.10,10.0,Calm,Calm,-,N/A,,Mostly Cloudy,0,2013-01-17 17:35:00
12:55 PM,41.5,29.1,61,30.10,10.0,North,4.6,-,N/A,,Overcast,360,2013-01-17 17:55:00
1:15 PM,42.1,29.3,61,30.08,10.0,Calm,Calm,-,N/A,,Overcast,0,2013-01-17 18:15:00
1:35 PM,42.3,29.7,61,30.06,10.0,Calm,Calm,-,N/A,,Overcast,0,2013-01-17 18:35:00
1:55 PM,41.7,30.2,64,30.06,10.0,Calm,Calm,-,N/A,,Overcast,0,2013-01-17 18:55:00
2:15 PM,41.9,31.3,66,30.07,10.0,Calm,Calm,-,N/A,,Overcast,0,2013-01-17 19:15:00
2:35 PM,41.2,31.6,69,30.07,10.0,Calm,Calm,-,N/A,,Overcast,0,2013-01-17 19:35:00
2:55 PM,41.0,31.5,69,30.07,10.0,Calm,Calm,-,N/A,,Overcast,0,2013-01-17 19:55:00
3:15 PM,40.6,31.5,70,30.08,10.0,Calm,Calm,-,N/A,,Overcast,0,2013-01-17 20:15:00
3:35 PM,40.6,31.6,70,30.07,10.0,Calm,Calm,-,N/A,,Overcast,0,2013-01-17 20:35:00
3:55 PM,40.3,31.8,72,30.08,10.0,Calm,Calm,-,N/A,,Overcast,0,2013-01-17 20:55:00
4:15 PM,40.3,31.8,72,30.10,10.0,Calm,Calm,-,N/A,,Overcast,0,2013-01-17 21:15:00
4:35 PM,40.1,31.5,71,30.09,10.0,Calm,Calm,-,N/A,,Overcast,0,2013-01-17 21:35:00
4:55 PM,39.7,31.6,73,30.11,10.0,Calm,Calm,-,N/A,,Overcast,0,2013-01-17 21:55:00
5:55 PM,39.2,32.0,75,30.11,10.0,Calm,Calm,-,N/A,,Overcast,0,2013-01-17 22:55:00
6:35 PM,38.7,32.0,77,30.12,10.0,Calm,Calm,-,N/A,,Scattered Clouds,0,2013-01-17 23:35:00
7:35 PM,37.8,32.5,81,30.11,10.0,Calm,Calm,-,N/A,,Clear,0,2013-01-18 00:35:00
8:15 PM,37.4,32.9,84,30.12,10.0,Calm,Calm,-,N/A,,Clear,0,2013-01-18 01:15:00
8:55 PM,37.0,32.0,82,30.12,10.0,Calm,Calm,-,N/A,,Clear,0,2013-01-18 01:55:00
9:15 PM,37.2,32.0,81,30.11,10.0,Calm,Calm,-,N/A,,Clear,0,2013-01-18 02:15:00
9:55 PM,37.9,31.6,78,30.12,10.0,Calm,Calm,-,N/A,,Clear,0,2013-01-18 02:55:00
10:15 PM,37.0,31.3,80,30.11,10.0,Calm,Calm,-,N/A,,Clear,0,2013-01-18 03:15:00
10:35 PM,37.4,28.4,70,30.12,10.0,NNW,8.1,-,N/A,,Clear,330,2013-01-18 03:35:00
10:55 PM,38.1,24.8,59,30.13,10.0,NW,9.2,-,N/A,,Clear,310,2013-01-18 03:55:00